Location: �terpigny
(49.8910°N, 2.9249°E)
Time: 06:55:35
(UTC+00:00)

NANOSAT C BR1 - Pass Details

Date: 10 July 2022
Orbit: 584 x 599 km, 98.0° (Epoch: 14 August)

Event Time Altitude Azimuth Distance (km) Brightness Sun altitude
Rises 02:29:09 0° 10° (N) 2,858 ? -10.1°
Reaches altitude 10° 02:31:21 10° 6° (N) 1,952 ? -9.9°
Maximum altitude 02:35:29 56° 289° (WNW) 720 ? -9.4°
Enters shadow 02:39:19 12° 212° (SSW) 1,817 ? -9.1°
